Location: Buckeye Ditch
(40.9104°N, 122.9517°W)
Time: 12:15:03
(UTC+00:00)

Explorer 7 - Pass Details

Date: 20 May 2025
Orbit: 445 x 571 km, 50.3° (Epoch: 22 June)

Event Time Altitude Azimuth Distance (km) Brightness Sun altitude
Rises 13:24:18 0° 295° (WNW) 2,573 9.8 5.1°
Reaches altitude 10° 13:26:52 10° 313° (NW) 1,717 9.1 5.6°
Maximum altitude 13:29:52 21° 3° (N) 1,215 9.0 6.1°
Drops below altitude 10° 13:32:57 10° 53° (NE) 1,779 11.3 6.7°
Sets 13:35:40 0° 70° (ENE) 2,696 13.1 7.1°
